Regional Weather Roundup
Issued by NWS Jackson, KY

Home | Current Version | Previous Version | Graphics & Text | Print | Product List | Glossary On
Versions: 1 2 3 4 5 6 7 8 9 10 11 12 13 14 15 16 17 18 19 20 21 22 23 24 25 26 27 28
000
ASUS43 KJKL 232210
RWRJKL

EAST KENTUCKY HOURLY WEATHER ROUNDUP
NATIONAL WEATHER SERVICE JACKSON KY
600 PM EDT MON APR 23 2018

NOTE: "FAIR" INDICATES FEW OR NO CLOUDS BELOW 12,000 FEET WITH
NO SIGNIFICANT WEATHER AND/OR OBSTRUCTIONS TO VISIBILITY.

* THESE REPORTS ARE NOT UNDER NWS QUALITY CONTROL AND MAY NOT
  REPORT WEATHER SUCH AS PRECIPITATION AND FOG.

KYZ079-080-083-085-087-088-110-112-115-119-120-232300
...EASTERN KENTUCKY...

CITY           SKY/WX    TMP DP  RH WIND       PRES   REMARKS
JACKSON        PTSUNNY   58  51  78 CALM      30.04F
LONDON         LGT RAIN  56  53  90 NE5       30.00F
SOMERSET*      RAIN      57  50  77 E10       30.00S
MONTICELLO*    CLOUDY    58  53  84 VRB5      29.99S
WILLIAMSBURG*  MOCLDY    55  54  94 E7        29.99S
MIDDLESBORO*   LGT RAIN  55  55 100 CALM      30.01F
HARLAN APT*    CLOUDY    61  47  61 SE7G18    30.01F
PIKE CO APT*   PTSUNNY   60  46  61 SE14G31   30.08S
BIG SANDY APT* CLOUDY    60  49  66 E12       30.09S
MOREHEAD APT*  LGT RAIN  54  50  87 E10G18    30.07F
ASHLAND*       LGT RAIN  55  50  83 E7        30.14S
$$

KYZ035-036-041-042-044-050-067-078-099-232300
...CENTRAL KENTUCKY...

CITY           SKY/WX    TMP DP  RH WIND       PRES   REMARKS
MT STERLING*   PTSUNNY   54  50  87 E12G17    30.06F
FLEMING/MASON* LGT RAIN  53  53  97 E13       30.09F
DANVILLE*      CLOUDY    59  50  72 CALM      30.02S
LEXINGTON      CLOUDY    58  50  75 E14G26    30.03S
FRANKFORT      CLOUDY    60  50  69 E17       30.01S
LOUISVILLE     CLOUDY    63  54  72 E10       29.98S
GLASGOW*       CLOUDY    60  54  78 E10       29.94S
BOWLING GREEN  CLOUDY    62  56  80 E10       29.93R
$$

KYZ091>093-OHZ055-061-077-WVZ005-015-034-035-042-232300
...SOUTHERN OHIO/WEST VIRGINIA...

CITY           SKY/WX    TMP DP  RH WIND       PRES   REMARKS
COVINGTON      CLOUDY    55  51  86 E15       30.07S
COLUMBUS       LGT RAIN  56  46  69 SE14      30.20R
DAYTON         LGT RAIN  54  53  97 SE18      30.14F
WILMINGTON     LGT RAIN  53  50  89 E15G21    30.13F
HUNTINGTON     LGT RAIN  55  49  80 E9        30.12F
CHARLESTON     LGT RAIN  56  48  74 E12       30.18S
PINEVILLE*     PTSUNNY   55  47  75 MISG      30.22F
BECKLEY        CLOUDY    49  46  90 SE15G23   30.20S
BLUEFIELD      LGT RAIN  48  42  80 SE10G24   30.20S
LOGAN CO APT*  MOCLDY    55  46  71 SE10G30   30.13F
$$

VAZ002-007-008-TNZ017-027-036-066-071-232300
...SOUTHWEST VIRGINIA/EAST TENNESSEE...

CITY           SKY/WX    TMP DP  RH WIND       PRES   REMARKS
WISE*            N/A     59  46  63 SE10G23   30.09F
JONESVILLE*      N/A     64  48  55 E17G25    30.04F
ABINGDON*      CLOUDY    58  47  68 E17G25    30.11F
BRISTOL        PTSUNNY   62  49  62 SE16G30   30.07F
MORRISTOWN*    CLOUDY    63  50  63 E15G21    29.98F
SEVIERVILLE*   CLOUDY    64  48  55 E12G17    29.95S
KNOXVILLE      RAIN      58  57  97 NE8       29.94F FOG
LAFOLLETTE*    PTCLDY    55  54  94 CALM      30.02F
OAK RIDGE      CLOUDY    57  56  96 VRB5      29.97F
CROSSVILLE     CLOUDY    54  51  90 E8        29.95F
NASHVILLE      CLOUDY    61  58  90 E9        29.89S
$$

...KEY TO REMARKS...
VSB - VISIBILITY IN MILES
WCI - WIND CHILL INDEX
HX  - HEAT INDEX

$$




USA.gov is the U.S. government's official web portal to all federal, state and local government web resources and services.